User: anonymous   Login
Location: Bakov nad Jizerou
(50.4784°N, 14.9394°E)
Time: 09:44:28
(UTC+00:00)
Language:

USA 32 - Orbit

View from above orbital plane
View from above orbital plane
View from above satellite
View from above satellite

Ground track
Ground track

The orbit data is extracted from the following two-line orbital elements,

1 19460U 88078A   21263.15658770 0.00000030  00000-0  10862-4 0    01
2 19460  84.9834  38.7271 0004524 250.9845 109.0153 14.33533856    04
Epoch (UTC): 20 September 2021 03:45:29
Eccentricity: 0.0004524
inclination: 84.9834°
perigee height: 777 km
apogee height: 783 km
right ascension of ascending node: 38.7271°
argument of perigee: 250.9845°
revolutions per day: 14.33533856
mean anomaly at epoch: 109.0153°
orbit number at epoch: 0

The dashed part of the orbit path shows where the satellite is in the earth's shadow,  

DLR